Location: Luxembourg
(49.6117°N, 6.1300°E)
Time: 18:52:57
(UTC+01:00)

Tiangong - Pass Details

Date: 13 December 2021
Orbit: 381 x 387 km, 41.5° (Epoch: 27 January)

Event Time Altitude Azimuth Distance (km) Brightness Sun altitude
Rises 17:58:23 0° 234° (SW) 2,287 6.7 -12.6°
Reaches altitude 10° 18:00:56 10° 214° (SSW) 1,430 4.8 -13.0°
Maximum altitude 18:03:08 17° 170° (S) 1,076 3.4 -13.3°
Enters shadow 18:05:14 11° 128° (SE) 1,396 3.6 -13.7°
